User: anonymous   Login
Location: Brno
(49.2000°N, 16.6330°E)
Time: 04:42:59
(UTC+02:00)
Language:

Cosmos 1459 Rocket - Orbit

View from above orbital plane
View from above orbital plane
View from above satellite
View from above satellite

Ground track
Ground track

The orbit data is extracted from the following two-line orbital elements,

1 14059U 83042B   15142.41326103  .00000098  00000-0  81601-4 0  9996
2 14059 082.9724 263.5862 0041620 230.9452 188.7748 13.78513425611496
Epoch (UTC): 22 May 2015 09:55:05
Eccentricity: 0.0041620
inclination: 82.9724°
perigee height: 938 km
apogee height: 1000 km
right ascension of ascending node: 263.5862°
argument of perigee: 230.9452°
revolutions per day: 13.78513425
mean anomaly at epoch: 188.7748°
orbit number at epoch: 61149

The dashed part of the orbit path shows where the satellite is in the earth's shadow,  

DLR